Back to catalog

STARLINK-5269

AliveCommunicationsVLEO
NORAD 54161·PAYLOAD·🇺🇸 United States

Launched Oct 28, 2022 from Vandenberg Space Force Base

Loading…

Next Passes (next 24 hours)

TLE

FreshSource: CelesTrak SupGP

Epoch: Sep 14, 2026, 12:41 UTC

1 54161C 22141E   26257.52895833 -.00038835  00000+0 -12488-2 0  2572
2 54161  53.1580 235.5748 0001087  81.3545 183.0405 15.31721686    19

Track STARLINK-5269 in real time with AllMySat

Download on the App Store